星链-30438 (STARLINK-30438 )

导读 | 豆包AI

STARLINK-30438是美国太空探索技术公司星链互联网星座的组网卫星,于2023年10月9日发射入轨,属于星链星座低轨部署批次。星链星座通过大量低轨卫星组成全球互联网络,为全球用户提供高速互联网接入服务,该卫星的成功发射进一步扩充了星链星座的服务覆盖范围与通信容量。

Basic Information
目录编号:
58035
目录名称:
STARLINK-30438
国际标识:
2023-156H
轨道中心:
EARTH
卫星名称:
星链-30438
卫星全名:
星链-30438 (STARLINK-30438 )
卫星状态:
在轨 (已飞行934 天)
发射日期:
2023-10-09 UTC
国别 :
美国 (US)
星等 :
--
Orbit Information
数据来源 国际轨道数据 AOE轨道数据
星历时间 2026-04-30T06:08:08+0800
20小时前
查看轨道信息
2026-04-28T07:00:00+0800
2天前
查看轨道信息
半长轴 6853.388km 6853.368km
偏心率 0.0001064 0.0001459
轨道倾角 53.159° 53.159°
近地点辐角 75.057° 68.630°
升交点赤经 200.136° 209.260°
平近点角 285.055° 266.481°
近地点 474.521km 474.231km
远地点 475.981km 476.231km
周期 94.106分钟 94.106分钟
每日圈数 15.301883 15.301947
Detailed Information
固有亮度:
5
最大亮度:
0.3
卫星平台:
Starlink v2.0 mini
覆盖范围:
全球
运营商:
太空探索技术公司
运营商所在国:
美国
制造商(研发单位):
太空探索技术公司
制造商所在国:
美国
使用方式:
暂无
Satellite Introduction
星链(Starlink)计划是由太空探索技术公司(SpaceX)提出的一个巨型低轨卫星互联网星座项目,计划在2019年至2024年间在太空搭建由约1.2万颗卫星组成的“星链”网络,其中1584颗将部署在地球上空550千米处的近地轨道,并从2020年开始工作。该卫星仍在工作。
2D Orbit Map
3D Orbit Map
Orbit Altitude Analysis Chart
Orbit Inclination Analysis Chart
Orbit Comprehensive Analysis Chart
View Comprehensive Chart